map of TOE home
TOE - Airport
Location
City:  Tozeur, Tunisia
Name:Nefta International Airport
ICAO:DTTZ
IATA:TOE

Details
Type:Airport (Aerodrome, Airfield)
Use:Public/Civil, International (customs port of entry)
Latitude:3356'23"N (33.939722)
Longitude:806'38"E (8.110556)
Elevation:287 ft (87 m)
Variation:2.14E (WMM2015v2 magnetic declination)
0.12 annual change
Runways:1
Longest:10581 × 148 ft (3225 × 45 m), paved

Time
Time Zone:UTC+1 (DST+2)

Weather
METAR:DTTZ 041400Z 28018KT 8000 SCT030 14/M05 Q1015
TAF:DTTZ 041100Z 0412/0512 30020KT 9999 SCT033

Related Locations
Nearby:
Farthest:GIS: 11788 mi / 18971 km
Gisborne, GIS, NZ

Find:

   beyond  
but within

Other Information
Maps:
NOTAMs:
Links:
Sources:

  
  • flag of Tunisia
  

Sectional Chart

Flight Planning
at skyvector.com

Satellite Image

Google Maps Satellite view

 

Copyright © 2004-2019 Karl L. Swartz. All rights reserved.
The Great Circle Mapper name and logo are trademarks of the Great Circle Mapper.
All other trademarks mentioned herein belong to their respective owners.
Please see credits for attibutions and further copyright information.

  Follow gcmap on Facebook Follow gcmap on Twitter GCmap on LinkedIn

hCard Microformat

Geo Microformat